| time (UTC) | temp F | wind direction | speed MPH | gust MPH | rain 1hr in | rain 24hr in | rain mn in | humidity % | barometer mb |
| 20260504024046 | 61 | 261 | 4.0 | 7.0 | 0.00 | 0.02 | 0.02 | 48 | 1005.3 |
| 20260504023520 | 61 | 255 | 4.0 | 8.0 | 0.00 | 0.02 | 0.02 | 48 | 1005.4 |
| 20260504023055 | 61 | 266 | 4.0 | 8.0 | 0.00 | 0.02 | 0.02 | 48 | 1005.3 |
| 20260504022535 | 62 | 273 | 4.0 | 8.0 | 0.00 | 0.02 | 0.02 | 48 | 1005.3 |
| 20260504022051 | 62 | 258 | 3.0 | 8.0 | 0.00 | 0.02 | 0.02 | 48 | 1005.2 |
| 20260504021530 | 62 | 252 | 4.0 | 7.0 | 0.00 | 0.02 | 0.02 | 49 | 1005.1 |
| 20260504021021 | 62 | 249 | 4.0 | 7.0 | 0.00 | 0.02 | 0.02 | 49 | 1005.1 |
| 20260504020532 | 63 | 226 | 3.0 | 4.0 | 0.00 | 0.02 | 0.02 | 48 | 1005.0 |
| 20260504020022 | 63 | 227 | 3.0 | 6.0 | 0.00 | 0.02 | 0.02 | 48 | 1004.8 |
| 20260504015537 | 63 | 226 | 4.0 | 6.0 | 0.00 | 0.02 | 0.02 | 47 | 1004.8 |
| 20260504015018 | 63 | 234 | 5.0 | 6.0 | 0.00 | 0.02 | 0.02 | 46 | 1004.8 |
| 20260504014555 | 64 | 232 | 4.0 | 5.0 | 0.00 | 0.02 | 0.02 | 46 | 1004.8 |
| 20260504014037 | 64 | 234 | 3.0 | 4.0 | 0.00 | 0.02 | 0.02 | 45 | 1004.7 |
| 20260504013529 | 65 | 252 | 2.0 | 3.0 | 0.00 | 0.02 | 0.02 | 45 | 1004.5 |
| 20260504013038 | 65 | 252 | 1.0 | 3.0 | 0.00 | 0.02 | 0.02 | 44 | 1004.6 |
| 20260504012531 | 65 | 252 | 2.0 | 5.0 | 0.00 | 0.02 | 0.02 | 44 | 1004.5 |
| 20260504012038 | 65 | 252 | 3.0 | 5.0 | 0.00 | 0.02 | 0.02 | 43 | 1004.5 |
| 20260504011535 | 66 | 243 | 4.0 | 5.0 | 0.00 | 0.02 | 0.02 | 43 | 1004.6 |
| 20260504011032 | 66 | 247 | 3.0 | 4.0 | 0.00 | 0.02 | 0.02 | 42 | 1004.6 |
| 20260504010524 | 66 | 247 | 3.0 | 4.0 | 0.00 | 0.02 | 0.02 | 42 | 1004.6 |
| 20260504010034 | 67 | 247 | 2.0 | 4.0 | 0.00 | 0.02 | 0.02 | 41 | 1004.5 |
| 20260504005529 | 67 | 247 | 3.0 | 4.0 | 0.00 | 0.02 | 0.02 | 41 | 1004.5 |
| 20260504005018 | 67 | 247 | 2.0 | 5.0 | 0.00 | 0.02 | 0.02 | 41 | 1004.6 |
| 20260504004526 | 67 | 261 | 3.0 | 5.0 | 0.00 | 0.02 | 0.02 | 41 | 1004.6 |
| 20260504004029 | 68 | 245 | 3.0 | 7.0 | 0.00 | 0.02 | 0.02 | 41 | 1004.5 |
| 20260504003530 | 68 | 256 | 3.0 | 8.0 | 0.00 | 0.02 | 0.02 | 40 | 1004.6 |
| 20260504003048 | 68 | 242 | 5.0 | 9.0 | 0.00 | 0.02 | 0.02 | 40 | 1004.5 |
| 20260504002522 | 68 | 259 | 3.0 | 12.0 | 0.00 | 0.02 | 0.02 | 40 | 1004.5 |
| 20260504002025 | 69 | 226 | 5.0 | 12.0 | 0.00 | 0.02 | 0.02 | 40 | 1004.5 |
| 20260504001531 | 69 | 263 | 6.0 | 14.0 | 0.00 | 0.02 | 0.02 | 40 | 1004.5 |
| 20260504001021 | 69 | 244 | 8.0 | 14.0 | 0.00 | 0.02 | 0.02 | 39 | 1004.4 |
| 20260504000528 | 69 | 234 | 7.0 | 16.0 | 0.00 | 0.02 | 0.02 | 39 | 1004.4 |
| 20260504000019 | 70 | 249 | 9.0 | 16.0 | 0.00 | 0.02 | 0.02 | 38 | 1004.4 |
| 20260503235518 | 70 | 235 | 7.0 | 15.0 | 0.00 | 0.02 | 0.02 | 38 | 1004.4 |
| 20260503235018 | 70 | 238 | 7.0 | 13.0 | 0.00 | 0.02 | 0.02 | 39 | 1004.3 |
| 20260503234533 | 70 | 234 | 7.0 | 12.0 | 0.00 | 0.02 | 0.02 | 38 | 1004.3 |
| 20260503234018 | 70 | 216 | 8.0 | 18.0 | 0.00 | 0.02 | 0.02 | 38 | 1004.3 |
| 20260503233530 | 70 | 246 | 8.0 | 18.0 | 0.00 | 0.02 | 0.02 | 38 | 1004.3 |
| 20260503233021 | 70 | 288 | 8.0 | 14.0 | 0.00 | 0.02 | 0.02 | 39 | 1004.3 |
| 20260503232530 | 70 | 241 | 8.0 | 14.0 | 0.00 | 0.02 | 0.02 | 39 | 1004.5 |
| 20260503232018 | 70 | 261 | 8.0 | 16.0 | 0.00 | 0.02 | 0.02 | 39 | 1004.5 |
| 20260503231531 | 70 | 242 | 9.0 | 16.0 | 0.00 | 0.02 | 0.02 | 39 | 1004.5 |
| 20260503231028 | 71 | 244 | 10.0 | 14.0 | 0.00 | 0.02 | 0.02 | 39 | 1004.5 |
| 20260503230525 | 71 | 233 | 7.0 | 14.0 | 0.00 | 0.02 | 0.02 | 40 | 1004.5 |
| 20260503230026 | 71 | 236 | 8.0 | 14.0 | 0.00 | 0.02 | 0.02 | 39 | 1004.6 |
| 20260503225521 | 71 | 290 | 8.0 | 15.0 | 0.00 | 0.02 | 0.02 | 40 | 1004.6 |
| 20260503225033 | 71 | 255 | 8.0 | 15.0 | 0.00 | 0.02 | 0.02 | 40 | 1004.6 |
| 20260503224524 | 71 | 266 | 8.0 | 15.0 | 0.00 | 0.02 | 0.02 | 40 | 1004.6 |
| 20260503224020 | 71 | 234 | 5.0 | 19.0 | 0.00 | 0.02 | 0.02 | 41 | 1004.6 |
| 20260503223534 | 71 | 238 | 14.0 | 19.0 | 0.00 | 0.02 | 0.02 | 39 | 1004.5 |
| 20260503223032 | 71 | 231 | 11.0 | 26.0 | 0.00 | 0.02 | 0.02 | 40 | 1004.6 |
| 20260503222538 | 71 | 224 | 16.0 | 26.0 | 0.00 | 0.02 | 0.02 | 40 | 1004.5 |
| 20260503222033 | 70 | 231 | 11.0 | 19.0 | 0.00 | 0.02 | 0.02 | 40 | 1004.6 |
| 20260503221521 | 70 | 197 | 13.0 | 20.0 | 0.00 | 0.02 | 0.02 | 40 | 1004.7 |
| 20260503221020 | 71 | 229 | 13.0 | 16.0 | 0.00 | 0.02 | 0.02 | 41 | 1004.6 |
| 20260503220550 | 70 | 236 | 9.0 | 21.0 | 0.00 | 0.02 | 0.02 | 42 | 1004.7 |
| 20260503220057 | 71 | 227 | 12.0 | 21.0 | 0.00 | 0.02 | 0.02 | 41 | 1004.8 |
| 20260503215036 | 71 | 240 | 11.0 | 19.0 | 0.00 | 0.02 | 0.02 | 41 | 1004.8 |
| 20260503214518 | 71 | 243 | 10.0 | 18.0 | 0.00 | 0.02 | 0.02 | 41 | 1005.1 |
| 20260503214028 | 71 | 239 | 7.0 | 17.0 | 0.00 | 0.02 | 0.02 | 41 | 1004.9 |
| 20260503213522 | 70 | 263 | 9.0 | 18.0 | 0.00 | 0.02 | 0.02 | 42 | 1004.9 |
| 20260503213036 | 70 | 244 | 9.0 | 19.0 | 0.00 | 0.02 | 0.02 | 42 | 1005.0 |
| 20260503212532 | 70 | 228 | 13.0 | 21.0 | 0.00 | 0.02 | 0.02 | 41 | 1005.0 |
| 20260503212029 | 69 | 265 | 14.0 | 24.0 | 0.00 | 0.02 | 0.02 | 42 | 1005.0 |
| 20260503211531 | 69 | 232 | 13.0 | 22.0 | 0.00 | 0.02 | 0.02 | 42 | 1005.0 |
| 20260503211025 | 69 | 233 | 13.0 | 19.0 | 0.00 | 0.02 | 0.02 | 42 | 1005.1 |
| 20260503210540 | 69 | 282 | 14.0 | 21.0 | 0.00 | 0.02 | 0.02 | 41 | 1005.1 |
| 20260503210042 | 69 | 250 | 11.0 | 22.0 | 0.00 | 0.02 | 0.02 | 42 | 1005.2 |
| 20260503205535 | 69 | 232 | 11.0 | 23.0 | 0.00 | 0.02 | 0.02 | 43 | 1005.3 |
| 20260503205029 | 69 | 221 | 15.0 | 23.0 | 0.00 | 0.02 | 0.02 | 42 | 1005.3 |
| 20260503204533 | 69 | 269 | 11.0 | 25.0 | 0.00 | 0.02 | 0.02 | 44 | 1005.5 |
| 20260503204029 | 69 | 227 | 17.0 | 25.0 | 0.00 | 0.02 | 0.02 | 42 | 1005.4 |
| 20260503203543 | 69 | 232 | 10.0 | 24.0 | 0.00 | 0.02 | 0.02 | 44 | 1005.6 |
| 20260503203031 | 69 | 228 | 16.0 | 24.0 | 0.00 | 0.02 | 0.02 | 42 | 1005.7 |
| 20260503202521 | 69 | 230 | 14.0 | 20.0 | 0.00 | 0.02 | 0.02 | 41 | 1005.8 |
| 20260503202018 | 69 | 233 | 11.0 | 22.0 | 0.00 | 0.02 | 0.02 | 43 | 1005.9 |
| 20260503201533 | 69 | 242 | 15.0 | 22.0 | 0.00 | 0.02 | 0.02 | 42 | 1005.8 |
| 20260503201030 | 69 | 241 | 12.0 | 22.0 | 0.00 | 0.02 | 0.02 | 44 | 1005.8 |
| 20260503200523 | 68 | 258 | 11.0 | 25.0 | 0.00 | 0.02 | 0.02 | 44 | 1005.8 |
| 20260503200036 | 68 | 207 | 14.0 | 28.0 | 0.00 | 0.02 | 0.02 | 44 | 1005.9 |
| 20260503195550 | 68 | 239 | 17.0 | 28.0 | 0.00 | 0.02 | 0.02 | 42 | 1006.0 |
| 20260503195036 | 68 | 190 | 12.0 | 26.0 | 0.00 | 0.02 | 0.02 | 44 | 1006.2 |
| 20260503194521 | 68 | 223 | 16.0 | 26.0 | 0.00 | 0.02 | 0.02 | 43 | 1006.2 |
| 20260503194024 | 67 | 210 | 13.0 | 26.0 | 0.00 | 0.02 | 0.02 | 43 | 1006.3 |
| 20260503193531 | 67 | 202 | 15.0 | 26.0 | 0.00 | 0.02 | 0.02 | 44 | 1006.4 |
| 20260503193020 | 67 | 223 | 15.0 | 27.0 | 0.00 | 0.02 | 0.02 | 44 | 1006.5 |
| 20260503192552 | 67 | 227 | 18.0 | 27.0 | 0.00 | 0.02 | 0.02 | 43 | 1006.6 |
| 20260503192027 | 68 | 216 | 14.0 | 27.0 | 0.00 | 0.02 | 0.02 | 43 | 1006.6 |
| 20260503191524 | 68 | 236 | 18.0 | 27.0 | 0.00 | 0.02 | 0.02 | 44 | 1006.5 |
| 20260503191029 | 67 | 215 | 16.0 | 24.0 | 0.00 | 0.02 | 0.02 | 43 | 1006.5 |
| 20260503190523 | 67 | 242 | 12.0 | 23.0 | 0.00 | 0.02 | 0.02 | 44 | 1006.7 |
| 20260503190027 | 66 | 269 | 12.0 | 29.0 | 0.00 | 0.02 | 0.02 | 45 | 1006.7 |
| 20260503185517 | 66 | 236 | 17.0 | 29.0 | 0.00 | 0.02 | 0.02 | 43 | 1006.9 |
| 20260503185024 | 67 | 210 | 17.0 | 26.0 | 0.00 | 0.02 | 0.02 | 43 | 1007.0 |
| 20260503184517 | 66 | 226 | 18.0 | 26.0 | 0.00 | 0.02 | 0.02 | 43 | 1006.7 |
| 20260503184020 | 66 | 222 | 16.0 | 26.0 | 0.00 | 0.02 | 0.02 | 44 | 1006.9 |
| 20260503183555 | 66 | 200 | 16.0 | 26.0 | 0.00 | 0.02 | 0.02 | 44 | 1006.9 |
| 20260503183030 | 66 | 225 | 21.0 | 27.0 | 0.00 | 0.02 | 0.02 | 44 | 1007.0 |
| 20260503182542 | 66 | 227 | 13.0 | 32.0 | 0.00 | 0.02 | 0.02 | 47 | 1007.0 |
| 20260503182034 | 65 | 224 | 16.0 | 29.0 | 0.00 | 0.02 | 0.02 | 46 | 1007.0 |
| 20260503181522 | 65 | 215 | 20.0 | 29.0 | 0.00 | 0.02 | 0.02 | 46 | 1007.0 |
| 20260503181032 | 65 | 229 | 19.0 | 31.0 | 0.00 | 0.02 | 0.02 | 46 | 1007.1 |
| 20260503180523 | 65 | 223 | 18.0 | 25.0 | 0.00 | 0.02 | 0.02 | 49 | 1007.1 |
| 20260503180024 | 64 | 205 | 20.0 | 30.0 | 0.00 | 0.02 | 0.02 | 47 | 1007.3 |
| 20260503175557 | 64 | 250 | 17.0 | 30.0 | 0.00 | 0.02 | 0.02 | 50 | 1007.4 |
| 20260503175033 | 63 | 225 | 18.0 | 29.0 | 0.00 | 0.02 | 0.02 | 50 | 1007.4 |
| 20260503174532 | 63 | 226 | 20.0 | 29.0 | 0.00 | 0.02 | 0.02 | 50 | 1007.6 |
| 20260503174027 | 63 | 208 | 19.0 | 27.0 | 0.00 | 0.02 | 0.02 | 49 | 1007.8 |
| 20260503173519 | 63 | 211 | 15.0 | 29.0 | 0.00 | 0.02 | 0.02 | 50 | 1007.7 |
| 20260503173027 | 63 | 212 | 17.0 | 29.0 | 0.00 | 0.02 | 0.02 | 50 | 1007.7 |
| 20260503172520 | 62 | 219 | 17.0 | 29.0 | 0.00 | 0.02 | 0.02 | 51 | 1007.7 |
| 20260503172033 | 62 | 219 | 20.0 | 29.0 | 0.00 | 0.02 | 0.02 | 49 | 1007.8 |
| 20260503171529 | 62 | 204 | 17.0 | 29.0 | 0.00 | 0.02 | 0.02 | 50 | 1008.0 |
| 20260503171023 | 61 | 219 | 22.0 | 28.0 | 0.00 | 0.02 | 0.02 | 50 | 1008.0 |
| 20260503170522 | 61 | 227 | 20.0 | 31.0 | 0.00 | 0.02 | 0.02 | 49 | 1008.0 |
| 20260503150527 | 55 | 187 | 19.0 | 28.0 | 0.01 | 0.02 | 0.02 | 70 | 1009.4 |
| 20260503130548 | 52 | 229 | 12.0 | 19.0 | 0.00 | 0.00 | 0.00 | 66 | 1011.3 |
| 20260503110559 | 48 | 213 | 9.0 | 14.0 | 0.00 | 0.00 | 0.00 | 57 | 1011.5 |
| 20260503081532 | 47 | 217 | 9.0 | 16.0 | 0.00 | 0.00 | 0.00 | 57 | 1012.5 |
| 20260503081023 | 47 | 206 | 9.0 | 16.0 | 0.00 | 0.00 | 0.00 | 57 | 1012.6 |
| 20260503080521 | 47 | 227 | 10.0 | 18.0 | 0.00 | 0.00 | 0.00 | 57 | 1012.6 |
| 20260503072521 | 46 | 221 | 9.0 | 14.0 | 0.00 | 0.00 | 0.00 | 56 | 1012.8 |
| 20260503072018 | 46 | 225 | 9.0 | 17.0 | 0.00 | 0.00 | 0.00 | 56 | 1012.9 |
| 20260503071520 | 46 | 201 | 10.0 | 14.0 | 0.00 | 0.00 | 0.00 | 56 | 1013.0 |
| 20260503071053 | 46 | 217 | 9.0 | 14.0 | 0.00 | 0.00 | 0.00 | 56 | 1013.0 |
| 20260503070525 | 46 | 205 | 10.0 | 13.0 | 0.00 | 0.00 | 0.00 | 56 | 1013.1 |
| 20260503055020 | 47 | 209 | 9.0 | 14.0 | 0.00 | 0.00 | 0.00 | 54 | 1013.8 |
| 20260503054527 | 47 | 210 | 7.0 | 14.0 | 0.00 | 0.00 | 0.00 | 54 | 1013.8 |
| 20260503054042 | 47 | 202 | 10.0 | 15.0 | 0.00 | 0.00 | 0.00 | 53 | 1013.7 |
| 20260503053528 | 47 | 206 | 10.0 | 12.0 | 0.00 | 0.00 | 0.00 | 53 | 1013.8 |
| 20260503053030 | 47 | 215 | 8.0 | 12.0 | 0.00 | 0.00 | 0.00 | 53 | 1013.7 |
| 20260503052525 | 47 | 209 | 7.0 | 10.0 | 0.00 | 0.00 | 0.00 | 53 | 1013.8 |
| 20260503052033 | 47 | 202 | 7.0 | 12.0 | 0.00 | 0.00 | 0.00 | 53 | 1013.9 |
| 20260503051531 | 47 | 211 | 7.0 | 11.0 | 0.00 | 0.00 | 0.00 | 53 | 1014.0 |
| 20260503051024 | 47 | 229 | 7.0 | 11.0 | 0.00 | 0.00 | 0.00 | 53 | 1014.1 |
| 20260503050522 | 47 | 218 | 8.0 | 11.0 | 0.00 | 0.00 | 0.00 | 53 | 1014.1 |
| 20260503050036 | 47 | 217 | 8.0 | 11.0 | 0.00 | 0.00 | 0.00 | 53 | 1014.0 |
| 20260503045521 | 47 | 209 | 7.0 | 11.0 | 0.00 | 0.00 | 0.00 | 52 | 1014.1 |
| 20260503045038 | 47 | 210 | 7.0 | 10.0 | 0.00 | 0.00 | 0.00 | 52 | 1014.1 |
| 20260503044526 | 47 | 202 | 7.0 | 10.0 | 0.00 | 0.00 | 0.00 | 52 | 1014.1 |
| 20260503044022 | 47 | 208 | 8.0 | 10.0 | 0.00 | 0.00 | 0.00 | 52 | 1014.0 |
| 20260503043524 | 47 | 210 | 7.0 | 10.0 | 0.00 | 0.00 | 0.00 | 51 | 1014.0 |
| 20260503043022 | 47 | 220 | 6.0 | 10.0 | 0.00 | 0.00 | 0.00 | 51 | 1014.0 |
| 20260503042533 | 48 | 220 | 7.0 | 9.0 | 0.00 | 0.00 | 0.00 | 51 | 1014.0 |
| 20260503042036 | 48 | 217 | 6.0 | 9.0 | 0.00 | 0.00 | 0.00 | 51 | 1014.1 |
| 20260503041529 | 48 | 209 | 7.0 | 10.0 | 0.00 | 0.00 | 0.00 | 50 | 1014.1 |
| 20260503041025 | 48 | 215 | 6.0 | 10.0 | 0.00 | 0.00 | 0.00 | 51 | 1014.1 |
| 20260503040521 | 48 | 222 | 6.0 | 9.0 | 0.00 | 0.00 | 0.00 | 50 | 1014.3 |
| 20260503040031 | 48 | 214 | 7.0 | 9.0 | 0.00 | 0.00 | 0.00 | 50 | 1014.4 |
| 20260503035535 | 48 | 240 | 6.0 | 9.0 | 0.00 | 0.00 | 0.00 | 49 | 1014.4 |
| 20260503035037 | 48 | 199 | 6.0 | 10.0 | 0.00 | 0.00 | 0.00 | 49 | 1014.4 |
| 20260503034533 | 48 | 225 | 7.0 | 10.0 | 0.00 | 0.00 | 0.00 | 49 | 1014.4 |
| 20260503034024 | 48 | 226 | 6.0 | 9.0 | 0.00 | 0.00 | 0.00 | 49 | 1014.4 |
| 20260503033541 | 49 | 199 | 5.0 | 7.0 | 0.00 | 0.00 | 0.00 | 49 | 1014.5 |
| 20260503033043 | 49 | 212 | 5.0 | 10.0 | 0.00 | 0.00 | 0.00 | 48 | 1014.5 |
| 20260503032537 | 49 | 216 | 6.0 | 10.0 | 0.00 | 0.00 | 0.00 | 48 | 1014.5 |
| 20260503032031 | 49 | 221 | 6.0 | 9.0 | 0.00 | 0.00 | 0.00 | 48 | 1014.5 |
| 20260503031521 | 49 | 212 | 7.0 | 9.0 | 0.00 | 0.00 | 0.00 | 48 | 1014.6 |
| 20260503031051 | 49 | 220 | 6.0 | 8.0 | 0.00 | 0.00 | 0.00 | 48 | 1014.6 |
| 20260503030525 | 49 | 202 | 5.0 | 8.0 | 0.00 | 0.00 | 0.00 | 48 | 1014.7 |
| 20260503030019 | 49 | 207 | 5.0 | 8.0 | 0.00 | 0.00 | 0.00 | 48 | 1014.7 |
| 20260503025536 | 49 | 208 | 6.0 | 8.0 | 0.00 | 0.00 | 0.00 | 47 | 1014.7 |
| 20260503025020 | 49 | 214 | 5.0 | 8.0 | 0.00 | 0.00 | 0.00 | 47 | 1014.7 |
| 20260503024552 | 49 | 213 | 5.0 | 8.0 | 0.00 | 0.00 | 0.00 | 47 | 1014.7 |